"2010-01-26 00:00:00",1624599,6.041,162.9,9.08,1.187,3.63,100.3377,0.162,1.418,34.18,0,109.7,13.53,0.91,124.9
"2010-01-26 00:00:30",1624600,6.512,163,5.594,1.122,4.563,100.3386,0.164,1.53,34.03,0,109.7,13.54,0.92,125.0
"2010-01-26 00:01:00",1624601,6.43,161.4,5.602,1.13,5.001,100.3324,0.148,1.452,33.97,0,109.7,13.54,0.90,123.4
"2010-01-26 00:01:30",1624602,6.639,158,5.586,0.95,4.859,100.3179,0.111,1.454,34,0,109.7,13.54,0.86,120.0
"2010-01-26 00:02:00",1624603,6.416,156.5,5.706,1.02,5.058,100.3061,0.081,1.419,33.99,0,109.7,13.54,0.83,118.5
"2010-01-26 00:02:30",1624604,5.603,167.3,5.352,1.306,4.809,100.3055,0.079,1.407,34.15,0,109.7,13.54,0.83,129.3
"2010-01-26 00:03:00",1624605,5.9,168.3,5.366,1.148,3.38,100.3007,0.067,1.276,34.15,0,109.7,13.54,0.82,130.3
"2010-01-26 00:03:30",1624606,6.618,171.2,6.149,0.963,4.609,100.2798,0.014,1.252,34.11,0,109.7,13.54,0.77,133.2
"2010-01-26 00:04:00",1624607,5.93,165.4,6.479,1.319,4.319,100.2716,-0.007,1.364,34.11,0,109.7,13.54,0.74,127.4
"2010-01-26 00:04:30",1624608,5.429,173.6,6.677,1.145,4.558,100.2716,-0.007,1.32,34.06,0,109.7,13.54,0.74,135.6
"2010-01-26 00:05:00",1624609,6.072,176.5,6.07,0.895,6.018,100.2639,-0.027,1.398,34.26,0,109.7,13.54,0.73,138.5
"2010-01-26 00:05:30",1624610,5.97,171,9.88,1.141,4.697,100.2441,-0.077,1.24,34.25,0,109.7,13.54,0.67,133.0
"2010-01-26 00:06:00",1624611,5.021,168,7.582,1.152,3.032,100.2376,-0.094,1.277,34.25,0,109.6,13.54,0.66,130.0
"2010-01-26 00:06:30",1624612,4.842,170.1,9.12,0.741,1.788,100.2376,-0.094,1.11,34.14,0,109.6,13.54,0.66,132.1
"2010-01-26 00:07:00",1624613,6.31,162.6,6.078,0.823,4.996,100.2331,-0.105,1.277,34.37,0,109.6,13.55,0.65,124.6
"2010-01-26 00:07:30",1624614,5.689,166.1,6.263,1.142,4.606,100.2144,-0.153,1.176,34.31,0,109.6,13.55,0.60,128.1
"2010-01-26 00:08:00",1624615,6.525,170.1,5.343,0.821,5.46,100.2039,-0.18,1.243,34.45,0,109.6,13.55,0.57,132.1
"2010-01-26 00:08:30",1624616,6.62,160.3,6.626,0.921,5.221,100.2059,-0.175,1.255,34.53,0,109.6,13.55,0.58,122.3
"2010-01-26 00:09:00",1624617,6.318,161.9,6.249,1.133,4.672,100.2105,-0.163,1.183,34.4,0,109.6,13.55,0.59,123.9
"2010-01-26 00:09:30",1624618,5.855,160.6,6.432,1.31,3.913,100.2076,-0.17,1.082,34.2,0,109.6,13.55,0.58,122.6
"2010-01-26 00:10:00",1624619,6.363,156.6,5.957,1.148,3.698,100.1929,-0.208,1.012,34.27,0,109.6,13.55,0.54,118.6
"2010-01-26 00:10:30",1624620,5.771,155.8,4.564,1.136,4.446,100.183,-0.233,1.129,34.48,0,109.6,13.55,0.52,117.8
"2010-01-26 00:11:00",1624621,6.755,161.7,3.753,0.692,6.231,100.1864,-0.224,1.174,34.6,0,109.7,13.56,0.53,123.7
"2010-01-26 00:11:30",1624622,6.643,165.3,4.33,0.561,6.452,100.1918,-0.211,1.174,34.7,0,109.6,13.56,0.54,127.3
"2010-01-26 00:12:00",1624623,6.349,169.4,5.583,1.009,5.332,100.1947,-0.203,1.104,34.69,0,109.6,13.56,0.55,131.4
"2010-01-26 00:12:30",1624624,5.797,172.6,7.972,1.093,4.137,100.185,-0.228,0.987,34.73,0,109.6,13.56,0.52,134.6
"2010-01-26 00:13:00",1624625,4.612,156.2,3.401,0.589,1.129,100.1698,-0.267,0.871,34.64,0,109.6,13.56,0.48,118.2
"2010-01-26 00:13:30",1624626,6.587,161.8,6.772,1.278,4.427,100.1621,-0.286,1.061,34.72,0,109.6,13.56,0.46,123.8
"2010-01-26 00:14:00",1624627,7.299,164.5,4.858,0.693,6.017,100.1627,-0.285,1.08,34.7,0,109.6,13.56,0.47,126.5
"2010-01-26 00:14:30",1624628,7.239,165.3,3.434,0.666,6.36,100.1627,-0.285,1.119,34.77,0,109.6,13.56,0.47,127.3
"2010-01-26 00:15:00",1624629,7.389,164.9,4.611,0.557,6.281,100.1667,-0.275,1.079,34.76,0,109.6,13.56,0.48,126.9
"2010-01-26 00:15:30",1624630,7.251,165.8,3.192,0.756,5.378,100.1686,-0.27,1.081,34.69,0,109.6,13.56,0.48,127.8
"2010-01-26 00:16:00",1624631,6.298,158.5,6.704,1.161,3.272,100.1593,-0.293,0.936,34.46,0,109.6,13.56,0.46,120.5
"2010-01-26 00:16:30",1624632,5.812,156,6.21,1.195,2.766,100.1446,-0.331,0.891,34.4,0,109.6,13.56,0.42,118.0
"2010-01-26 00:17:00",1624633,6.403,160.6,6.234,1.217,3.414,100.1367,-0.351,0.862,34.35,0,109.6,13.56,0.40,122.6
"2010-01-26 00:17:30",1624634,7.464,167.4,4.567,0.68,6.468,100.1358,-0.353,1.04,34.57,0,109.6,13.56,0.40,129.4
"2010-01-26 00:18:00",1624635,7.26,173.7,4.94,0.331,6.376,100.1358,-0.353,1.03,34.68,0,109.6,13.57,0.40,135.7
"2010-01-26 00:18:30",1624636,7.458,164.6,3.472,0.77,5.975,100.1358,-0.353,1.014,34.78,0,109.6,13.57,0.40,126.6
"2010-01-26 00:19:00",1624637,6.668,163.8,7.666,1.1,4.204,100.1358,-0.353,0.896,34.59,0,109.6,13.57,0.40,125.8
"2010-01-26 00:19:30",1624638,5.403,166.4,8.8,1.036,3.044,100.1358,-0.353,0.77,34.61,0,109.6,13.56,0.40,128.4
"2010-01-26 00:20:00",1624639,5.541,173.5,9.61,1.257,3.705,100.1358,-0.353,0.927,34.98,0,109.6,13.57,0.40,135.5
"2010-01-26 00:20:30",1624640,6.001,180.4,9.96,0.955,4.663,100.1358,-0.353,0.951,35.12,0,109.6,13.56,0.40,142.4
"2010-01-26 00:21:00",1624641,6.593,188.2,7.495,0.797,5.694,100.1358,-0.353,0.949,35.11,0,109.6,13.56,0.40,150.2
"2010-01-26 00:21:30",1624642,6.172,182.2,12.04,1.278,4.314,100.1358,-0.353,0.902,35.04,0,109.6,13.57,0.40,144.2
"2010-01-26 00:22:00",1624643,6.38,171.5,10.91,1.314,4.567,100.1358,-0.353,0.896,34.99,0,109.6,13.56,0.40,133.5
"2010-01-26 00:22:30",1624644,6.818,204.8,25.89,1.031,5.086,100.1372,-0.35,0.929,35.17,0,109.6,13.56,0.40,166.8
"2010-01-26 00:23:00",1624645,5.195,217.5,6.676,0.959,5.177,100.1401,-0.342,0.925,35.64,0,109.6,13.56,0.41,179.5
"2010-01-26 00:23:30",1624646,4.63,224.7,7.526,1.27,4.956,100.1423,-0.337,0.95,35.84,0,109.5,13.56,0.41,186.7
"2010-01-26 00:24:00",1624647,2.763,203.6,17.2,1.453,2.275,100.146,-0.327,0.687,35.54,0,109.5,13.57,0.42,165.6
"2010-01-26 00:24:30",1624648,3.539,181.8,15.07,1.947,3.304,100.1517,-0.313,0.919,35.71,0,109.6,13.57,0.44,143.8
"2010-01-26 00:25:00",1624649,5.748,171.8,10.62,1.41,4.5,100.1571,-0.299,0.951,35.56,0,109.5,13.57,0.45,133.8
"2010-01-26 00:25:30",1624650,6.308,160.4,6.03,1.286,4.893,100.1613,-0.288,0.976,35.06,0,109.5,13.57,0.46,122.4
"2010-01-26 00:26:00",1624651,6.466,159.9,7.311,0.794,5.865,100.1664,-0.275,1.001,34.9,0,109.5,13.57,0.48,121.9
"2010-01-26 00:26:30",1624652,6.092,158.2,6.093,1.244,3.887,100.1687,-0.269,0.937,34.72,0,109.5,13.57,0.48,120.2
"2010-01-26 00:27:00",1624653,5.751,169.2,9.39,1.247,3.877,100.1738,-0.256,0.841,34.65,0,109.5,13.58,0.49,131.2
"2010-01-26 00:27:30",1624654,5.929,190.4,8.83,1.336,4.186,100.1732,-0.258,0.968,34.71,0,109.5,13.58,0.49,152.4
"2010-01-26 00:28:00",1624655,3.788,216.7,33.6,1.988,5.42,100.1766,-0.249,0.984,35.12,0,109.5,13.58,0.50,178.7
"2010-01-26 00:28:30",1624656,1.956,175.1,57.85,1.279,3.679,100.1792,-0.243,0.834,35.02,0,109.6,13.58,0.51,137.1
"2010-01-26 00:29:00",1624657,2.797,204,16.83,1.215,4.342,100.1795,-0.242,1.005,35.48,0,109.6,13.58,0.51,166.0
"2010-01-26 00:29:30",1624658,4.434,168.7,17.71,1.253,3.925,100.1789,-0.243,0.957,35.46,0,109.5,13.58,0.51,130.7
"2010-01-26 00:30:00",1624659,5.518,161.1,5.511,1.245,2.362,100.1775,-0.247,0.876,34.81,0,109.6,13.58,0.50,123.1
"2010-01-26 00:30:30",1624660,6.971,160.1,7.097,1.112,4.637,100.1721,-0.261,0.999,34.71,0,109.5,13.58,0.49,122.1
"2010-01-26 00:31:00",1624661,6.538,165.5,6.951,1.171,4.805,100.1704,-0.265,0.989,34.57,0,109.5,13.58,0.49,127.5
"2010-01-26 00:31:30",1624662,6.872,171.7,4.51,0.726,6.19,100.1698,-0.267,1.061,34.52,0,109.5,13.59,0.48,133.7
"2010-01-26 00:32:00",1624663,6.911,167.5,3.389,0.849,5.81,100.1698,-0.267,1.066,34.5,0,109.5,13.59,0.48,129.5
"2010-01-26 00:32:30",1624664,6.376,170.1,6.586,1.056,5.513,100.1698,-0.267,1.082,34.52,0,109.5,13.59,0.48,132.1
"2010-01-26 00:33:00",1624665,4.453,169.8,6.949,1.132,2.622,100.1698,-0.267,0.823,34.32,0,109.5,13.59,0.48,131.8
"2010-01-26 00:33:30",1624666,4.082,153.3,7.503,1.5,2.492,100.1698,-0.267,0.812,34.39,0,109.6,13.59,0.48,115.3
"2010-01-26 00:34:00",1624667,4.911,156.5,7.818,1.68,2.908,100.1698,-0.267,0.886,34.55,0,109.6,13.59,0.48,118.5
"2010-01-26 00:34:30",1624668,7.41,177.3,10.16,0.9,5.615,100.1698,-0.267,1.004,34.67,0,109.5,13.59,0.48,139.3
"2010-01-26 00:35:00",1624669,7.637,175.1,4.368,0.753,6.399,100.169,-0.269,1.043,34.71,0,109.6,13.59,0.48,137.1
"2010-01-26 00:35:30",1624670,7.628,174.5,4.969,0.507,6.336,100.1582,-0.296,1.024,34.62,0,109.6,13.59,0.45,136.5
"2010-01-26 00:36:00",1624671,7.147,168.8,5.7,1.07,4.983,100.1466,-0.326,0.966,34.48,0,109.5,13.59,0.43,130.8
"2010-01-26 00:36:30",1624672,7.204,173.3,6.819,0.925,4.835,100.1378,-0.348,0.98,34.53,0,109.5,13.59,0.40,135.3
"2010-01-26 00:37:00",1624673,6.358,165.5,6.976,1.257,2.831,100.1359,-0.353,0.784,34.46,0,109.5,13.59,0.40,127.5
"2010-01-26 00:37:30",1624674,6.967,168.5,9.93,1.155,5.076,100.1364,-0.352,0.949,34.62,0,109.5,13.59,0.40,130.5
"2010-01-26 00:38:00",1624675,7.145,185.4,8.13,1.151,5.193,100.1359,-0.353,0.95,34.73,0,109.5,13.59,0.40,147.4
"2010-01-26 00:38:30",1624676,7.224,194.1,10.6,1.409,5.652,100.1359,-0.353,0.932,34.9,0,109.5,13.59,0.40,156.1
"2010-01-26 00:39:00",1624677,3.81,213,36.53,1.235,6.28,100.1359,-0.353,0.987,35.33,0,109.5,13.59,0.40,175.0
"2010-01-26 00:39:30",1624678,5.199,164.4,12.13,1.444,4.066,100.1359,-0.353,0.881,35.2,0,109.5,13.59,0.40,126.4
"2010-01-26 00:40:00",1624679,4.613,170.9,15.49,1.471,2.725,100.1359,-0.353,0.843,34.96,0,109.5,13.59,0.40,132.9
"2010-01-26 00:40:30",1624680,4.795,160.8,11.04,1.117,3.479,100.1364,-0.352,0.844,34.93,0,109.5,13.59,0.40,122.8
"2010-01-26 00:41:00",1624681,6.746,177.3,10.55,0.705,5.781,100.137,-0.35,0.96,34.92,0,109.5,13.59,0.40,139.3
"2010-01-26 00:41:30",1624682,6.859,180.4,9.31,1.002,4.938,100.1407,-0.341,0.969,34.88,0,109.5,13.59,0.41,142.4
"2010-01-26 00:42:00",1624683,7.171,190.4,4.524,0.875,5.918,100.1452,-0.329,1.011,34.93,0,109.5,13.59,0.42,152.4
"2010-01-26 00:42:30",1624684,5.669,197.4,15.85,1.01,4.283,100.1455,-0.329,0.931,35,0,109.5,13.59,0.42,159.4
"2010-01-26 00:43:00",1624685,6.229,184.1,6.464,1.202,3.874,100.1503,-0.316,0.967,35.1,0,109.5,13.59,0.43,146.1
"2010-01-26 00:43:30",1624686,6.65,185.3,8.64,1.196,3.357,100.1503,-0.316,0.849,34.95,0,109.5,13.59,0.43,147.3
"2010-01-26 00:44:00",1624687,5.711,173.8,5.218,1.055,4.108,100.1548,-0.305,0.913,35.05,0,109.5,13.6,0.45,135.8
"2010-01-26 00:44:30",1624688,5.402,196.5,15.4,1.097,5.219,100.156,-0.302,0.986,35.27,0,109.5,13.6,0.45,158.5
"2010-01-26 00:45:00",1624689,5.191,232.2,10.3,0.75,5.847,100.1651,-0.279,0.991,35.59,0,109.5,13.6,0.47,194.2
"2010-01-26 00:45:30",1624690,3.107,228.3,12.45,1.321,3.39,100.1608,-0.29,0.977,35.71,0,109.5,13.6,0.46,190.3
"2010-01-26 00:46:00",1624691,3.364,180.1,18.41,1.079,3.447,100.1656,-0.277,0.816,35.58,0,109.5,13.6,0.47,142.1
"2010-01-26 00:46:30",1624692,3.811,202.2,9.93,0.875,2.067,100.1673,-0.273,0.963,35.71,0,109.5,13.6,0.48,164.2
"2010-01-26 00:47:00",1624693,4.187,248.8,21.86,1.349,3.328,100.1704,-0.265,0.788,35.52,0,109.6,13.6,0.49,210.8
"2010-01-26 00:47:30",1624694,5.617,249.6,20.13,1.206,5.736,100.1866,-0.224,1.033,35.76,0,109.5,13.6,0.53,211.6
"2010-01-26 00:48:00",1624695,5.664,187.6,21.03,1.088,5.983,100.1903,-0.214,0.979,35.56,0,109.5,13.6,0.54,149.6
"2010-01-26 00:48:30",1624696,6.952,184.6,8.23,0.915,5.743,100.1835,-0.232,1.008,35.28,0,109.5,13.6,0.52,146.6
"2010-01-26 00:49:00",1624697,6.912,178.4,8.91,0.945,5.28,100.1798,-0.241,1.021,34.91,0,109.5,13.6,0.51,140.4
"2010-01-26 00:49:30",1624698,6.581,186.3,6.34,0.946,5.555,100.1727,-0.259,0.948,34.76,0,109.5,13.6,0.49,148.3
"2010-01-26 00:50:00",1624699,3.983,186,8.27,0.721,1.826,100.1699,-0.266,0.859,34.98,0,109.5,13.6,0.48,148.0
"2010-01-26 00:50:30",1624700,5.085,206.1,12.12,1.298,4.51,100.169,-0.269,0.984,35.31,0,109.5,13.6,0.48,168.1
"2010-01-26 00:51:00",1624701,2.81,212.9,17.23,1.439,3.206,100.169,-0.269,0.81,35.27,0,109.5,13.6,0.48,174.9
"2010-01-26 00:51:30",1624702,2.919,246.1,45.52,1.933,4.189,100.1685,-0.27,1.014,35.56,0,109.5,13.6,0.48,208.1
"2010-01-26 00:52:00",1624703,3.078,271.6,17.22,1.214,3.964,100.1696,-0.267,0.948,35.65,0,109.5,13.6,0.48,233.6
"2010-01-26 00:52:30",1624704,3.644,249.9,25.73,1.862,3.515,100.1846,-0.229,0.936,35.76,0,109.5,13.61,0.52,211.9
"2010-01-26 00:53:00",1624705,4.903,255.9,13.37,1.163,1.913,100.192,-0.21,0.809,35.96,0,109.5,13.61,0.54,217.9
"2010-01-26 00:53:30",1624706,6.261,243.5,10.01,1.193,4.78,100.1979,-0.195,0.982,36.17,0,109.5,13.6,0.56,205.5
"2010-01-26 00:54:00",1624707,6.056,235.6,7.618,0.893,5.611,100.186,-0.225,1.024,36.27,0,109.5,13.6,0.53,197.6
"2010-01-26 00:54:30",1624708,6.426,217.4,15.24,0.962,6.257,100.1792,-0.243,1.05,36.28,0,109.5,13.6,0.51,179.4
"2010-01-26 00:55:00",1624709,6.276,198.6,9.25,1.292,5.17,100.1795,-0.242,1.039,36.11,0,109.5,13.6,0.51,160.6
"2010-01-26 00:55:30",1624710,5.113,204.6,10.23,1.225,4.377,100.1702,-0.266,0.92,35.84,0,109.6,13.6,0.49,166.6
"2010-01-26 00:56:00",1624711,5.513,183.1,9.69,1.624,3.346,100.1704,-0.265,0.844,35.78,0,109.5,13.6,0.49,145.1
"2010-01-26 00:56:30",1624712,6.234,187.7,8.53,1.13,4.057,100.1699,-0.266,0.945,35.8,0,109.5,13.6,0.48,149.7
"2010-01-26 00:57:00",1624713,7.874,196.1,7.72,0.931,4.655,100.1699,-0.266,0.963,35.57,0,109.5,13.6,0.48,158.1
"2010-01-26 00:57:30",1624714,7.335,204.2,9.45,1.067,5.586,100.1699,-0.266,0.976,35.39,0,109.5,13.6,0.48,166.2
"2010-01-26 00:58:00",1624715,6.558,203.4,7.883,1.098,4.702,100.1699,-0.266,0.992,35.55,0,109.5,13.6,0.48,165.4
"2010-01-26 00:58:30",1624716,7.298,190.5,7.901,1.316,5.095,100.1699,-0.266,0.987,35.66,0,109.5,13.6,0.48,152.5
"2010-01-26 00:59:00",1624717,7.065,200.3,6.054,1.004,4.947,100.1699,-0.266,0.959,35.76,0,109.5,13.61,0.48,162.3
"2010-01-26 00:59:30",1624718,7.244,201.9,11.75,1.018,5.331,100.1679,-0.271,0.94,35.64,0,109.5,13.61,0.48,163.9
"2010-01-26 01:00:00",1624719,5.833,210.2,6.891,1.083,4.67,100.1668,-0.274,0.957,35.74,0,109.5,13.61,0.48,172.2
"2010-01-26 01:00:30",1624720,5.524,198.7,6.635,1.149,3.433,100.1605,-0.29,0.905,35.84,0,109.5,13.61,0.46,160.7
"2010-01-26 01:01:00",1624721,6.02,201.3,6.812,1.22,3.71,100.1569,-0.3,0.959,36.05,0,109.5,13.61,0.45,163.3
"2010-01-26 01:01:30",1624722,6.289,207.1,7.225,1.076,5.078,100.1546,-0.305,0.927,36.12,0,109.5,13.61,0.45,169.1
"2010-01-26 01:02:00",1624723,5.907,216.1,10.89,1.259,4.295,100.154,-0.307,0.946,36.25,0,109.5,13.61,0.44,178.1
"2010-01-26 01:02:30",1624724,5.995,229.5,6.937,1.12,5.25,100.1509,-0.315,0.972,36.26,0,109.5,13.61,0.44,191.5
"2010-01-26 01:03:00",1624725,4.958,209.1,13.61,1.378,4.312,100.1509,-0.315,0.964,36.25,0,109.5,13.61,0.44,171.1
"2010-01-26 01:03:30",1624726,6.796,207.6,10.37,1.236,4.633,100.1512,-0.314,0.916,36.17,0,109.5,13.61,0.44,169.6
"2010-01-26 01:04:00",1624727,6.358,236.1,9.84,1.824,3.762,100.1512,-0.314,0.813,36.17,0,109.5,13.61,0.44,198.1
"2010-01-26 01:04:30",1624728,5.407,222.7,22.58,1.259,4.129,100.1481,-0.322,0.94,36.25,0,109.5,13.61,0.43,184.7
"2010-01-26 01:05:00",1624729,7.921,193.8,10.03,0.807,5.679,100.141,-0.34,0.946,35.94,0,109.5,13.61,0.41,155.8
"2010-01-26 01:05:30",1624730,8.01,216,6.805,0.856,5.95,100.1382,-0.347,0.975,35.89,0,109.5,13.61,0.40,178.0
"2010-01-26 01:06:00",1624731,8.01,220.2,13.16,1.256,6.03,100.1365,-0.352,0.99,36.05,0,109.5,13.61,0.40,182.2
"2010-01-26 01:06:30",1624732,6.239,257,11.6,1.012,6.029,100.1359,-0.353,0.976,36.41,0,109.5,13.61,0.40,219.0
"2010-01-26 01:07:00",1624733,5.284,283.8,16.32,0.942,5.01,100.139,-0.345,0.912,36.56,0,109.5,13.61,0.41,245.8
"2010-01-26 01:07:30",1624734,2.391,233.3,31.1,1.618,1.643,100.1489,-0.32,0.692,36.44,0,109.5,13.61,0.43,195.3
"2010-01-26 01:08:00",1624735,3.254,196.8,22.26,1.54,0.783,100.1569,-0.3,0.692,36.03,0,109.5,13.61,0.45,158.8
"2010-01-26 01:08:30",1624736,5.387,216.5,10.05,1.374,2.365,100.1699,-0.266,0.869,35.92,0,109.5,13.62,0.48,178.5
"2010-01-26 01:09:00",1624737,6.858,234.7,7.888,1.014,5.937,100.1702,-0.266,0.987,36.14,0,109.5,13.62,0.49,196.7
"2010-01-26 01:09:30",1624738,6.519,228.7,5.734,0.868,6.694,100.1702,-0.266,1.022,36.36,0,109.5,13.61,0.49,190.7
"2010-01-26 01:10:00",1624739,7.378,261.5,12.73,1.278,6.535,100.1702,-0.266,1.022,36.32,0,109.5,13.61,0.49,223.5
"2010-01-26 01:10:30",1624740,5.152,250,17.1,1.219,5.781,100.1707,-0.264,1.04,36.19,0,109.5,13.61,0.49,212.0
"2010-01-26 01:11:00",1624741,4.539,235.6,18.57,1.249,3.739,100.1713,-0.263,0.958,35.87,0,109.5,13.61,0.49,197.6
"2010-01-26 01:11:30",1624742,4.328,218.4,10.42,1.454,0.34,100.1719,-0.261,0.755,35.37,0,109.5,13.64,0.49,180.4
"2010-01-26 01:12:00",1624743,5.297,196.4,6.052,1.253,1.775,100.1713,-0.263,0.799,35.29,0,109.5,13.61,0.49,158.4
"2010-01-26 01:12:30",1624744,6.526,202.1,12.51,1.131,4.983,100.1736,-0.257,0.971,35.37,0,109.5,13.61,0.49,164.1
"2010-01-26 01:13:00",1624745,7.447,197.1,17.27,1.725,6.332,100.1758,-0.251,1.034,35.33,0,109.6,13.62,0.50,159.1
"2010-01-26 01:13:30",1624746,7.553,199.9,10.61,1.038,6.128,100.175,-0.253,1.045,35.11,0,109.5,13.61,0.50,161.9
"2010-01-26 01:14:00",1624747,5.601,210,14.55,1.048,5.786,100.1747,-0.254,1.054,35.06,0,109.5,13.61,0.50,172.0
"2010-01-26 01:14:30",1624748,5.054,204.7,16.42,1.092,4.644,100.175,-0.253,1.033,35.11,0,109.5,13.61,0.50,166.7
"2010-01-26 01:15:00",1624749,6.2,230.7,10.06,1.028,3.651,100.1696,-0.267,0.886,35.17,0,109.5,13.62,0.48,192.7
"2010-01-26 01:15:30",1624750,3.558,213,18.68,1.113,1.015,100.171,-0.264,0.739,35.25,0,109.5,13.64,0.49,175.0
"2010-01-26 01:16:00",1624751,5.337,189,13.57,2.636,3.505,100.1659,-0.276,0.927,35.32,0,109.5,13.62,0.47,151.0
"2010-01-26 01:16:30",1624752,7.927,190.6,10.71,1.21,6.404,100.164,-0.282,1.005,35.27,0,109.5,13.62,0.47,152.6
"2010-01-26 01:17:00",1624753,6.69,228.4,13.74,0.884,6.667,100.1691,-0.269,1.029,35.43,0,109.4,13.62,0.48,190.4
"2010-01-26 01:17:30",1624754,6.384,199.4,23.77,1.192,6.181,100.1654,-0.278,0.999,35.52,0,109.5,13.62,0.47,161.4
"2010-01-26 01:18:00",1624755,7.561,185,7.484,0.824,5.964,100.1609,-0.289,1.003,35.35,0,109.5,13.62,0.46,147.0
"2010-01-26 01:18:30",1624756,7.584,202.4,12.6,0.983,5.53,100.1586,-0.295,0.99,35.39,0,109.5,13.62,0.46,164.4
"2010-01-26 01:19:00",1624757,7.327,201.3,10.86,0.988,5.423,100.1526,-0.31,1.008,35.4,0,109.5,13.62,0.44,163.3
"2010-01-26 01:19:30",1624758,6.554,189,12.56,1.727,3.49,100.1529,-0.31,0.925,35.33,0,109.5,13.62,0.44,151.0
"2010-01-26 01:20:00",1624759,7.093,182.1,5.132,1.165,3.079,100.1535,-0.308,0.918,35.25,0,109.5,13.62,0.44,144.1
"2010-01-26 01:20:30",1624760,7.451,195.3,11.09,1.259,3.604,100.1532,-0.309,0.834,34.99,0,109.5,13.62,0.44,157.3
"2010-01-26 01:21:00",1624761,7.19,207.5,5.816,0.748,5.755,100.1549,-0.305,0.989,35.11,0,109.5,13.62,0.45,169.5
"2010-01-26 01:21:30",1624762,7.437,267.7,18.16,0.907,6.144,100.1569,-0.3,0.967,35.6,0,109.5,13.62,0.45,229.7
"2010-01-26 01:22:00",1624763,5.188,310.9,93,1.482,6.073,100.1566,-0.3,0.949,35.81,0,109.5,13.62,0.45,272.9
"2010-01-26 01:22:30",1624764,7.544,171.7,12.82,1.136,5.702,100.1597,-0.292,0.981,35.75,0,109.5,13.62,0.46,133.7
"2010-01-26 01:23:00",1624765,8.59,187.2,9.31,1.076,5.895,100.16,-0.292,0.966,35.51,0,109.5,13.62,0.46,149.2
"2010-01-26 01:23:30",1624766,7.409,203.7,12.15,1.53,5.582,100.1592,-0.294,0.961,35.8,0,109.5,13.62,0.46,165.7
"2010-01-26 01:24:00",1624767,5.875,219,13.72,1.072,2.625,100.1592,-0.294,0.879,35.73,0,109.5,13.62,0.46,181.0
"2010-01-26 01:24:30",1624768,7.75,182,7.072,1.227,2.973,100.1606,-0.29,0.737,35.67,0,109.5,13.62,0.46,144.0
"2010-01-26 01:25:00",1624769,9.09,205.1,8.08,1.704,4.638,100.1575,-0.298,0.91,35.62,0,109.5,13.62,0.45,167.1
"2010-01-26 01:25:30",1624770,9.02,204.6,4.191,1.106,6.013,100.149,-0.32,0.936,35.57,0,109.5,13.62,0.43,166.6
"2010-01-26 01:26:00",1624771,8.49,191.9,7.295,1.288,6.428,100.143,-0.335,0.942,35.49,0,109.5,13.62,0.42,153.9
"2010-01-26 01:26:30",1624772,8.26,195,9.7,1.131,6.19,100.1374,-0.349,0.932,35.49,0,109.5,13.62,0.40,157.0
"2010-01-26 01:27:00",1624773,6.699,207.2,10.53,0.884,5.984,100.1292,-0.37,0.944,35.55,0,109.5,13.61,0.38,169.2
"2010-01-26 01:27:30",1624774,7.172,202.3,15.37,0.849,5.608,100.1274,-0.375,0.93,35.61,0,109.5,13.61,0.38,164.3
"2010-01-26 01:28:00",1624775,8.35,192.4,9.74,1.368,5.168,100.128,-0.373,0.915,35.73,0,109.5,13.61,0.38,154.4
"2010-01-26 01:28:30",1624776,8.71,183.9,7.089,0.699,4.907,100.128,-0.373,0.929,35.68,0,109.5,13.61,0.38,145.9
"2010-01-26 01:29:00",1624777,7.016,214.9,18.27,1.401,4.026,100.128,-0.373,0.834,35.56,0,109.5,13.61,0.38,176.9
"2010-01-26 01:29:30",1624778,6.823,176.5,11.07,1.891,2.886,100.128,-0.373,0.715,35.6,0,109.5,13.61,0.38,138.5
"2010-01-26 01:30:00",1624779,7.287,181.3,7.316,1.202,3.247,100.1283,-0.372,0.756,35.75,0,109.5,13.61,0.38,143.3
"2010-01-26 01:30:30",1624780,8.17,197.2,12.73,1.167,5.092,100.1283,-0.372,0.913,36,0,109.5,13.62,0.38,159.2
"2010-01-26 01:31:00",1624781,8.82,209.3,8.03,1.126,5.822,100.128,-0.373,0.88,36,0,109.5,13.62,0.38,171.3
"2010-01-26 01:31:30",1624782,7.818,187.1,6.019,0.731,6,100.1255,-0.38,0.887,35.83,0,109.5,13.62,0.37,149.1
"2010-01-26 01:32:00",1624783,7.966,184.3,7.523,0.722,5.592,100.1153,-0.406,0.887,35.82,0,109.5,13.62,0.34,146.3
"2010-01-26 01:32:30",1624784,7.852,191.5,17.14,0.937,5.479,100.1085,-0.423,0.881,35.78,0,109.5,13.62,0.33,153.5
"2010-01-26 01:33:00",1624785,6.942,178.2,14.99,1.102,5.422,100.1088,-0.422,0.872,35.77,0,109.5,13.62,0.33,140.2
"2010-01-26 01:33:30",1624786,9.49,197.6,6.805,0.94,5.252,100.1037,-0.435,0.871,35.8,0,109.5,13.62,0.32,159.6
"2010-01-26 01:34:00",1624787,7.974,190.7,10.31,1.381,5.019,100.0997,-0.445,0.865,35.83,0,109.5,13.62,0.31,152.7
"2010-01-26 01:34:30",1624788,9.51,195.5,10.04,1.351,5.139,100.0954,-0.456,0.863,35.74,0,109.5,13.62,0.29,157.5
"2010-01-26 01:35:00",1624789,8.78,189.8,6.528,1.128,5.094,100.0938,-0.461,0.848,35.72,0,109.5,13.62,0.29,151.8
"2010-01-26 01:35:30",1624790,9.08,187.5,5.627,1.063,5.259,100.0935,-0.461,0.841,35.72,0,109.5,13.62,0.29,149.5
"2010-01-26 01:36:00",1624791,9.28,198.2,7.976,1.137,5.036,100.0946,-0.458,0.83,35.74,0,109.5,13.62,0.29,160.2
"2010-01-26 01:36:30",1624792,10.59,194,9.27,0.922,5.113,100.0946,-0.458,0.815,35.66,0,109.5,13.62,0.29,156.0
"2010-01-26 01:37:00",1624793,9.98,198.9,10.74,1.053,5.235,100.0943,-0.459,0.838,35.71,0,109.5,13.62,0.29,160.9
"2010-01-26 01:37:30",1624794,10.93,185.9,6.226,0.763,5.29,100.0952,-0.457,0.829,35.55,0,109.5,13.62,0.29,147.9
"2010-01-26 01:38:00",1624795,8.16,190.9,8.17,1.163,5.428,100.0938,-0.461,0.828,35.54,0,109.5,13.62,0.29,152.9
"2010-01-26 01:38:30",1624796,9.12,190.9,10.14,1.092,5.462,100.094,-0.46,0.808,35.75,0,109.5,13.62,0.29,152.9
"2010-01-26 01:39:00",1624797,9.05,206,15.2,1.502,5.518,100.0938,-0.461,0.812,35.9,0,109.5,13.62,0.29,168.0
"2010-01-26 01:39:30",1624798,7.953,192.2,9.1,1.244,5.312,100.0938,-0.461,0.812,35.96,0,109.5,13.62,0.29,154.2
"2010-01-26 01:40:00",1624799,8.91,190.7,8.42,1.136,5.19,100.0955,-0.456,0.82,35.89,0,109.5,13.62,0.29,152.7
"2010-01-26 01:40:30",1624800,9.56,190.6,8.91,1.092,5.178,100.0977,-0.45,0.825,35.87,0,109.5,13.62,0.30,152.6
"2010-01-26 01:41:00",1624801,9.14,187.6,9.08,1.393,5.067,100.1014,-0.441,0.814,35.75,0,109.5,13.62,0.31,149.6
"2010-01-26 01:41:30",1624802,7.695,193.1,9.79,1.795,5.159,100.1014,-0.441,0.822,35.78,0,109.5,13.62,0.31,155.1
"2010-01-26 01:42:00",1624803,11.27,194.4,6.76,0.813,4.977,100.1003,-0.444,0.821,35.78,0,109.5,13.62,0.31,156.4
"2010-01-26 01:42:30",1624804,10,195.1,8.29,0.965,5.398,100.0988,-0.448,0.828,35.75,0,109.5,13.62,0.30,157.1
"2010-01-26 01:43:00",1624805,8.59,217,10.55,0.901,5.201,100.0988,-0.448,0.837,35.83,0,109.5,13.61,0.30,179.0
"2010-01-26 01:43:30",1624806,9.54,197.7,10.73,0.935,5.504,100.1011,-0.442,0.822,35.9,0,109.5,13.61,0.31,159.7
"2010-01-26 01:44:00",1624807,9.9,199.7,8.78,0.628,5.349,100.1025,-0.438,0.828,35.75,0,109.5,13.61,0.31,161.7
"2010-01-26 01:44:30",1624808,9.12,200.3,6.666,0.638,5.544,100.1034,-0.436,0.84,35.76,0,109.5,13.61,0.31,162.3
"2010-01-26 01:45:00",1624809,11.19,193.5,5.628,0.839,5.465,100.1017,-0.44,0.83,35.72,0,109.5,13.61,0.31,155.5
"2010-01-26 01:45:30",1624810,9.68,193.8,7.958,0.954,5.367,100.0988,-0.448,0.824,35.69,0,109.5,13.61,0.30,155.8
"2010-01-26 01:46:00",1624811,9.31,184.9,4.915,0.858,5.3,100.0969,-0.453,0.815,35.65,0,109.5,13.61,0.30,146.9
"2010-01-26 01:46:30",1624812,8.06,191.9,12.29,0.98,5.3,100.094,-0.46,0.82,35.63,0,109.5,13.61,0.29,153.9
"2010-01-26 01:47:00",1624813,8.95,189.2,4.743,0.824,5.227,100.0938,-0.461,0.814,35.68,0,109.5,13.62,0.29,151.2